Weather observations for the past three days for
Charleston Executive Airport
Metric (Imperial)
Date Time (edt) Wind (kph) Vis. (km) Weather Sky Cond. Temperature (ºC) Relative Humidity Wind Chill (°C) Heat Index (°C) Pressure Precipitation (cm)
Air Dwpt 6 hour altimeter (cm) sea level (mb) 1 hr 3 hr 6 hr
Max. Min.
31 20:35 Calm 16.09 Fair CLR 27 25 89% 31 76.4 0.0
31 20:15 Calm 16.09 Fair CLR 27 25 89% 31 76.38 0.0
31 19:35 E 11 16.09 Fair CLR 28 25 84% 33 76.38 0.0
31 19:15 E 11 16.09 A Few Clouds FEW016 28 25 84% 33 76.38 0.0
31 18:55 E 15 16.09 Fair CLR 29 25 79% 35 76.35 0.0
31 18:35 E 13 16.09 Fair CLR 29 24 74% 34 76.35 0.0
31 18:15 E 13 16.09 Fair CLR 30 24 70% 35 76.35 0.0
31 17:55 E 13 16.09 Fair CLR 29 24 74% 34 76.38 0.0
31 17:35 E 9 16.09 Fair CLR 29 24 74% 34 76.38 0.0
31 17:15 E 11 16.09 Fair CLR 29 24 74% 34 76.35 0.0
31 16:50 E 15 16.09 Fair CLR 29 25 79% 35 76.35 0.0
31 16:35 Calm 16.09 Fair CLR 29 24 74% 34 76.35 0.0
31 16:15 Calm 16.09 Fair CLR 29 24 74% 34 76.35 0.0
31 15:55 E 11 16.09 Fair CLR 29 24 74% 34 76.38 0.0
31 15:35 E 11 16.09 Fair CLR 29 25 79% 35 76.38 0.0
31 15:15 E 11 16.09 Fair CLR 30 24 70% 35 76.4 0.0
31 14:55 E 11 16.09 Fair CLR 30 25 75% 36 76.43 0.0
31 14:35 Vrbl 7 16.09 Fair CLR 29 25 79% 35 76.45 0.0
31 14:15 SE 13 16.09 Fair CLR 30 25 75% 36 76.45 0.0
31 13:55 SE 11 16.09 Fair CLR 30 25 75% 36 76.48 0.0
31 13:35 Calm 16.09 Partly Cloudy FEW014 FEW022 SCT031 29 24 74% 34 76.5 0.0
31 13:15 SE 19 16.09 Partly Cloudy FEW014 SCT022 28 25 84% 33 76.53 0.0
31 12:55 E 17 16.09 Fair CLR 28 25 84% 33 76.56 0.0
31 12:35 E 17 16.09 Fair CLR 28 25 84% 33 76.56 0.0
31 12:15 E 15 16.09 Fair CLR 28 24 79% 32 76.56 0.0
31 11:55 E 13 16.09 Fair CLR 28 25 84% 33 76.58 0.0
31 11:35 E 13 16.09 Thunderstorm in Vicinity CLR 29 25 79% 35 76.56 0.0
31 11:15 E 7 16.09 Thunderstorm in Vicinity CLR 29 24 74% 34 76.53 0.0
31 10:55 NE 7 16.09 Fair CLR 29 24 74% 34 76.5 0.0
31 10:35 Calm 16.09 Fair CLR 29 24 74% 34 76.5 0.0
31 10:15 N 7 16.09 Fair CLR 28 24 79% 32 76.5 0.0
31 09:55 Calm 16.09 Thunderstorm in Vicinity CLR 28 24 79% 32 76.5 0.0
31 09:35 N 9 16.09 Fair CLR 28 24 79% 32 76.48 0.0
31 09:15 NE 13 16.09 Fair CLR 28 25 84% 33 76.48 0.0
31 08:55 N 9 16.09 Fair CLR 27 25 89% 31 76.48 0.0
31 08:35 N 9 16.09 Fair CLR 27 26 94% 31 76.45 0.0
31 08:15 N 6 16.09 Fair CLR 26 26 100% 28 76.45 0.0
31 07:55 Calm 16.09 Thunderstorm in Vicinity CLR 26 26 100% 28 76.45 0.0
31 07:35 Calm 9.66 Fog/Mist CLR 25 25 100% 25 76.43 0.0
31 07:15 Calm 8.05 Fog/Mist CLR 25 25 100% 25 76.43 0.0
31 06:55 Calm 9.66 Fog/Mist SCT005 25 25 100% 25 76.43 0.0
31 06:35 N 11 11.27 Mostly Cloudy BKN005 25 25 100% 25 76.43 0.0
31 06:15 N 9 11.27 Partly Cloudy SCT004 25 25 100% 25 76.4 0.0
31 05:55 N 11 12.87 Partly Cloudy SCT004 25 25 100% 25 76.4 0.0
31 05:35 N 11 11.27 Fair CLR 25 25 100% 25 76.4 0.0
31 05:15 Calm 9.66 Fog/Mist FEW016 FEW023 25 25 100% 25 76.4 0.0
31 04:55 Calm 12.87 Partly Cloudy SCT016 25 25 100% 25 76.4 0.0
31 04:35 Calm 16.09 Fair CLR 25 25 100% 25 76.38 0.0
31 04:15 Calm 16.09 A Few Clouds FEW005 FEW016 25 25 100% 25 76.38 0.0
31 03:55 Calm 16.09 Fair CLR 25 25 100% 25 76.38 0.0
31 03:35 Calm 16.09 Fair CLR 25 25 100% 25 76.38 0.0
31 03:15 Calm 16.09 Fair CLR 24 24 100% 23 76.4 0.0
31 02:55 Calm 16.09 Fair CLR 25 25 100% 25 76.4 0.0
31 02:35 Calm 16.09 Fair CLR 25 25 100% 25 76.4 0.0
31 02:15 Calm 16.09 Partly Cloudy SCT014 25 25 100% 25 76.4 0.0
31 01:55 Calm 16.09 A Few Clouds FEW014 25 25 100% 25 76.43 0.0
31 01:35 Calm 16.09 Fair CLR 25 25 100% 25 76.43 0.0
31 01:15 Calm 16.09 Fair CLR 25 25 100% 25 76.45 0.0
31 00:55 Calm 16.09 Fair CLR 25 25 100% 25 76.45 0.0
31 00:35 Calm 16.09 Fair CLR 25 25 100% 25 76.45 0.0
31 00:15 Calm 16.09 Fair CLR 25 25 100% 25 76.45 0.0
30 23:55 Calm 16.09 A Few Clouds FEW014 26 25 94% 28 76.45 0.0
30 23:35 Calm 16.09 A Few Clouds FEW015 26 25 94% 28 76.48 0.0
30 23:15 Calm 16.09 Fair CLR 26 25 94% 28 76.5 0.0
30 22:55 Calm 16.09 Fair CLR 26 25 94% 28 76.5 0.0
30 22:35 Calm 16.09 A Few Clouds FEW014 27 25 89% 31 76.5 0.0
30 22:15 Calm 16.09 A Few Clouds FEW015 27 25 89% 31 76.5 0.0
30 21:55 Calm 16.09 Fair CLR 27 25 89% 31 76.5 0.0
30 21:35 Calm 16.09 Partly Cloudy SCT016 27 25 89% 31 76.5 0.0
30 21:15 Calm 16.09 Overcast OVC015 27 25 89% 31 76.48 0.0
30 20:55 Calm 16.09 Partly Cloudy SCT014 27 25 89% 31 76.48 0.0
30 20:35 Calm 16.09 Fair CLR 27 25 89% 31 76.45 0.0
30 20:15 Calm 16.09 Fair CLR 27 25 89% 31 76.45 0.0
30 19:55 E 11 16.09 A Few Clouds FEW024 27 25 89% 31 76.43 0.0
30 19:35 E 7 16.09 A Few Clouds FEW024 28 25 84% 33 76.43 0.0
30 19:15 Calm 16.09 Fair CLR 28 25 84% 33 76.4 0.0
30 18:55 NE 7 16.09 Fair CLR 29 24 74% 34 76.4 0.0
30 18:35 NE 9 16.09 Fair CLR 29 24 74% 34 76.4 0.0
30 18:15 NE 11 16.09 A Few Clouds FEW023 29 24 74% 34 76.4 0.0
30 17:55 NE 11 16.09 A Few Clouds FEW024 29 24 74% 34 76.43 0.0
30 17:35 E 13 16.09 Fair CLR 30 23 66% 34 76.43 0.0
30 17:15 E 15 16.09 Fair CLR 29 23 70% 33 76.43 0.0
30 16:55 E 17 16.09 Fair CLR 30 23 66% 34 76.45 0.0
30 16:35 E 19 16.09 Partly Cloudy SCT019 30 24 70% 35 76.48 0.0
30 16:15 NE 11 16.09 Partly Cloudy SCT020 30 25 75% 36 76.5 0.0
30 15:55 E 15 16.09 Fair CLR 30 25 75% 36 76.48 0.0
30 15:35 E 19 16.09 Fair CLR 29 25 79% 35 76.5 0.0
30 15:15 E 15 16.09 Fair CLR 29 25 79% 35 76.5 0.0
30 14:55 E 17 16.09 Partly Cloudy FEW016 SCT030 SCT038 30 25 75% 36 76.5 0.0
30 14:35 E 19 16.09 Partly Cloudy FEW021 SCT031 SCT038 30 25 75% 36 76.53 0.0
30 14:15 E 11 G 22 16.09 A Few Clouds FEW021 30 25 75% 36 76.53 0.0
30 13:55 E 13 G 24 16.09 A Few Clouds FEW020 30 25 75% 36 76.56 0.0
30 13:35 E 9 G 22 16.09 A Few Clouds FEW019 30 24 70% 35 76.58 0.0
30 13:15 E 11 G 26 16.09 A Few Clouds FEW016 29 25 79% 35 76.56 0.0
30 12:55 E 24 16.09 Fair CLR 29 25 79% 35 76.56 0.0
30 12:35 E 17 16.09 Thunderstorm in Vicinity FEW041 FEW048 28 25 84% 33 76.63 0.0
30 12:15 Calm 16.09 Partly Cloudy SCT043 28 25 84% 33 76.63 0.0
30 11:55 E 13 16.09 Thunderstorm in Vicinity SCT044 27 25 89% 31 76.63 0.0
30 11:35 E 9 16.09 Fair CLR 28 24 79% 32 76.63 0.0
30 11:15 E 15 16.09 Fair CLR 28 24 79% 32 76.66 0.0
30 10:55 Calm 16.09 Fair CLR 29 24 74% 34 76.63 0.0
30 10:35 Calm 16.09 Fair CLR 29 24 74% 34 76.63 0.0
30 10:15 Vrbl 9 16.09 Thunderstorm in Vicinity CLR 29 25 79% 35 76.63 0.0
30 09:55 NE 11 16.09 Thunderstorm in Vicinity CLR 28 24 79% 32 76.61 0.0
30 09:35 Vrbl 11 16.09 Fair CLR 28 25 84% 33 76.61 0.0
30 09:15 NE 9 16.09 Fair CLR 27 25 89% 31 76.61 0.0
30 08:55 NE 17 16.09 Fair CLR 27 25 89% 31 76.61 0.0
30 08:35 NE 11 14.48 A Few Clouds FEW100 25 25 100% 25 76.58 0.0
30 08:15 N 13 16.09 Partly Cloudy SCT100 25 25 100% 25 76.58 0.0
30 07:55 N 13 16.09 Fair CLR 24 24 100% 23 76.56 0.0
30 07:35 N 11 16.09 Fair CLR 24 24 100% 23 76.53 0.0
30 07:15 N 7 14.48 Fair CLR 24 24 100% 23 76.53 0.0
30 06:55 N 11 16.09 A Few Clouds FEW006 FEW012 24 24 100% 23 76.5 0.0
30 06:35 N 11 16.09 Partly Cloudy FEW006 SCT011 SCT075 24 24 100% 23 76.5 0.0
30 06:15 N 9 14.48 A Few Clouds FEW075 25 25 100% 25 76.53 0.0
30 05:55 Calm 14.48 Fair CLR 25 25 100% 25 76.5 0.0
30 05:35 N 9 16.09 Fair CLR 25 25 100% 25 76.48 0.0
30 05:15 N 7 14.48 Fair CLR 25 25 100% 25 76.45 0.0
30 04:50 Calm 14.48 Fair CLR 24 24 100% 23 76.48 0.0
30 04:35 N 7 14.48 Fair CLR 25 25 100% 25 76.45 0.0
30 04:15 N 7 12.87 A Few Clouds FEW042 25 25 100% 25 76.48 0.0
30 03:55 N 9 14.48 Partly Cloudy FEW018 FEW026 SCT041 25 25 100% 25 76.45 0.0
30 03:35 N 9 14.48 Partly Cloudy SCT018 SCT026 25 25 100% 25 76.48 0.0
30 03:15 N 9 14.48 Fair CLR 25 25 100% 25 76.5 0.0
30 02:55 N 11 12.87 Fair CLR 25 25 100% 25 76.5 0.0
30 02:35 N 9 14.48 Fair CLR 25 25 100% 25 76.53 0.0
30 02:15 Calm 11.27 Fair CLR 24 24 100% 23 76.53 0.0
30 01:55 Calm 9.66 Fog/Mist CLR 24 24 100% 23 76.56 0.0
30 01:35 Calm 4.83 Fog/Mist CLR 25 25 100% 25 76.56 0.0
30 01:15 Calm 11.27 Fair CLR 25 25 100% 25 76.56 0.0
30 00:55 Calm 12.87 Fair CLR 24 24 100% 23 76.56 0.0
30 00:35 Calm 12.87 Fair CLR 24 24 100% 23 76.56 0.0
30 00:15 Calm 6.44 Fog/Mist CLR 24 24 100% 23 76.53 0.0
29 23:55 Calm 9.66 Fog/Mist FEW020 25 25 100% 25 76.56 0.0
29 23:35 Calm 12.87 Partly Cloudy FEW020 SCT037 SCT045 25 25 100% 25 76.58 0.0
29 23:15 Calm 14.48 Light Drizzle SCT035 BKN050 OVC060 25 25 100% 25 76.61 0.0
29 22:55 Calm 16.09 Mostly Cloudy FEW003 SCT022 BKN035 26 26 100% 28 76.61 0.0 0.61
29 22:35 Vrbl 7 G 28 1.21 Heavy Rain Fog/Mist BKN003 OVC020 25 25 100% 25 76.63 0.0
29 22:15 Calm 16.09 Partly Cloudy FEW020 SCT025 SCT037 27 25 89% 31 76.63 0.0
29 21:55 Calm 16.09 Mostly Cloudy SCT020 SCT025 BKN031 27 25 89% 31 76.63 0.0
29 21:35 Calm 16.09 Partly Cloudy SCT019 SCT026 SCT031 26 25 94% 28 76.61 0.0
29 21:15 Calm 16.09 Fair CLR 25 25 100% 25 76.56 0.0
29 20:55 Calm 16.09 Fair CLR 25 25 100% 25 76.53 0.0
29 20:35 Calm 16.09 Fair CLR 26 25 94% 28 76.5 0.0
29 20:15 Calm 16.09 Fair CLR 25 25 100% 25 76.48 0.0
29 19:55 Calm 16.09 A Few Clouds FEW017 26 24 89% 28 76.48 0.0
29 19:30 Calm 16.09 A Few Clouds FEW017 26 24 89% 28 76.5 0.0
29 19:15 Calm 16.09 Fair CLR 26 24 89% 28 76.5 0.0
29 18:55 E 11 16.09 Fair CLR 26 24 89% 28 76.5 0.0
29 18:35 E 9 16.09 Thunderstorm in Vicinity FEW018 27 24 84% 30 76.48 0.0
29 18:15 E 9 16.09 Thunderstorm in Vicinity FEW018 27 24 84% 30 76.5 0.0
29 17:55 E 9 16.09 A Few Clouds FEW020 27 24 84% 30 76.48 0.0 0.03
29 17:35 E 11 16.09 Partly Cloudy SCT019 27 24 84% 30 76.5 0.0
29 17:15 E 9 6.44 Light Drizzle Haze FEW022 SCT031 SCT044 27 24 84% 30 76.5 0.0
29 16:55 Calm 8.05 Light Drizzle Fog/Mist BKN021 OVC031 27 24 84% 30 76.5 0.0 0.15
29 16:35 E 9 14.48 Light Rain BKN020 BKN034 BKN045 27 25 89% 31 76.5 0.0
29 16:15 Calm 3.22 Light Rain Fog/Mist FEW019 FEW043 SCT060 27 25 89% 31 76.48 0.0
29 15:55 E 17 4.83 Light Drizzle Haze FEW022 SCT027 BKN055 27 25 89% 31 76.5 0.0 0.03
29 15:35 E 11 16.09 Mostly Cloudy FEW020 BKN025 BKN030 28 24 79% 32 76.5 0.0
29 15:15 Calm 16.09 Mostly Cloudy FEW020 BKN029 28 24 79% 32 76.53 0.0
29 14:55 Calm 16.09 Overcast BKN022 OVC027 28 24 79% 32 76.5 0.0
29 14:35 Calm 16.09 Mostly Cloudy SCT021 BKN028 BKN035 28 24 79% 32 76.53 0.0
29 14:10 Calm 16.09 Partly Cloudy FEW019 SCT024 28 24 79% 32 76.53 0.0
29 13:55 Calm 16.09 Mostly Cloudy BKN020 BKN025 28 24 79% 32 76.53 0.0
29 13:35 E 7 16.09 Mostly Cloudy BKN019 BKN024 29 25 79% 35 76.56 0.0
29 13:15 Calm 16.09 Mostly Cloudy SCT016 SCT022 BKN027 28 24 79% 32 76.58 0.0
29 12:55 SE 13 16.09 Mostly Cloudy SCT014 BKN027 28 25 84% 33 76.58 0.0 0.03
29 12:35 E 9 16.09 A Few Clouds FEW014 27 25 89% 31 76.61 0.0
29 12:15 E 7 16.09 Fair CLR 26 25 94% 28 76.61 0.0
29 11:55 E 6 11.27 Light Drizzle FEW050 FEW060 26 25 94% 28 76.63 0.0 0.03
29 11:35 Calm 14.48 Light Drizzle SCT049 BKN060 26 25 94% 28 76.63 0.0
29 11:15 E 7 12.87 Light Rain BKN042 OVC055 25 24 94% 26 76.66 0.0
29 10:55 SE 9 11.27 Light Drizzle FEW017 BKN043 26 24 89% 28 76.63 0.0
29 10:35 E 11 14.48 Light Drizzle FEW044 26 24 89% 28 76.61 0.0
29 10:15 E 7 16.09 Fair CLR 26 24 89% 28 76.61 0.0
29 09:55 SE 11 16.09 Fair CLR 26 24 89% 28 76.58 0.0
29 09:35 E 13 16.09 Fair CLR 25 24 94% 26 76.56 0.0
29 09:15 E 7 16.09 Thunderstorm in Vicinity CLR 25 25 100% 25 76.56 0.0
29 08:55 E 7 16.09 A Few Clouds FEW050 25 25 100% 25 76.56 0.0
29 08:35 Calm 16.09 Fair CLR 24 24 100% 23 76.56 0.0
29 08:15 Calm 16.09 Fair CLR 23 23 100% 76.56 0.0
29 07:55 Calm 16.09 Fair CLR 23 23 100% 76.53 0.0 0.03
29 07:35 N 6 16.09 Partly Cloudy FEW033 FEW050 SCT075 23 23 100% 76.53 0.0
29 07:15 Calm 12.87 Light Drizzle FEW033 SCT050 BKN070 23 23 100% 76.5 0.0
29 06:55 Calm 12.87 Light Drizzle SCT045 BKN060 OVC090 23 23 100% 76.5 0.0
29 06:35 Calm 16.09 Overcast BKN060 BKN070 OVC085 23 23 100% 76.5 0.0
29 06:15 E 6 G 19 16.09 Overcast SCT049 OVC065 23 23 100% 76.48 0.0
29 05:55 S 9 9.66 Thunderstorm in Vicinity Fog/Mist FEW015 OVC050 23 23 100% 76.48 0.0 0.3
29 05:35 SE 11 G 26 2.41 Rain Fog/Mist SCT003 BKN016 OVC055 24 24 100% 23 76.48 0.0
29 05:15 Calm 14.48 Overcast BKN017 BKN055 OVC090 24 24 100% 23 76.48 0.0
29 04:55 Calm 9.66 Thunderstorm in Vicinity Drizzle Fog/Mist FEW015 BKN036 OVC080 24 24 100% 23 76.43 0.0 0.1
29 04:35 Calm 6.44 Light Rain Fog/Mist FEW021 BKN034 OVC060 24 24 100% 23 76.43 0.0
29 04:15 Calm 8.05 Light Rain Fog/Mist FEW023 BKN034 OVC065 24 24 100% 23 76.4 0.0
29 03:55 Calm 6.44 Thunderstorm in Vicinity Rain Fog/Mist SCT031 BKN050 OVC120 24 24 100% 23 76.38 0.0 0.05
29 03:35 Calm 8.05 Thunderstorm in Vicinity Drizzle Fog/Mist FEW034 SCT048 BKN075 24 24 100% 23 76.38 0.0
29 03:15 Calm 16.09 Thunderstorm in Vicinity FEW075 FEW085 SCT110 24 24 100% 23 76.38 0.0
29 02:55 Calm 16.09 Thunderstorm in Vicinity FEW050 FEW090 FEW120 24 24 100% 23 76.35 0.0
29 02:35 Calm 14.48 Partly Cloudy FEW043 SCT050 24 24 100% 23 76.38 0.0
29 02:15 Calm 12.87 Mostly Cloudy FEW036 SCT044 BKN080 24 24 100% 23 76.38 0.0
29 01:55 Calm 12.87 Light Drizzle FEW055 BKN065 OVC080 24 24 100% 23 76.4 0.0
29 01:35 Calm 14.48 Overcast SCT050 BKN065 OVC070 25 25 100% 25 76.43 0.0
29 01:15 Calm 16.09 Mostly Cloudy FEW039 SCT049 BKN055 25 25 100% 25 76.43 0.0
29 00:55 Calm 16.09 Mostly Cloudy FEW039 SCT055 BKN120 24 24 100% 23 76.43 0.0
29 00:35 Calm 12.87 A Few Clouds FEW065 FEW120 24 24 100% 23 76.43 0.0
29 00:15 Calm 16.09 Fair CLR 24 24 100% 23 76.4 0.0
28 23:55 Calm 16.09 A Few Clouds FEW100 FEW120 24 24 100% 23 76.4 0.0
28 23:35 Calm 16.09 Partly Cloudy FEW041 SCT100 SCT120 24 24 100% 23 76.4 0.0
28 23:15 Calm 16.09 Partly Cloudy FEW065 FEW075 SCT120 24 24 100% 23 76.4 0.0
28 22:55 Calm 16.09 Mostly Cloudy FEW060 SCT070 BKN100 24 24 100% 23 76.4 0.0
28 22:35 Calm 16.09 Mostly Cloudy FEW060 SCT100 BKN120 24 24 100% 23 76.4 0.0
28 22:15 N 7 16.09 Mostly Cloudy SCT100 BKN120 24 24 100% 23 76.38 0.0
28 21:55 Calm 14.48 Light Drizzle OVC110 25 25 100% 25 76.38 0.0
28 21:35 Calm 16.09 Mostly Cloudy BKN110 24 24 100% 23 76.35 0.0
28 21:15 Calm 14.48 Mostly Cloudy BKN110 24 24 100% 23 76.33 0.0
28 20:55 Calm 14.48 Fair CLR 24 24 100% 23 76.3 0.0
Date Time (edt) Wind (kph) Vis. (km) Weather Sky Cond. Air Dwpt Max. Min. Relative Humidity Wind Chill (°C) Heat Index (°C) altimeter (cm) sea level (mb) 1 hr 3 hr 6 hr
6 hour
Temperature (ºC) Pressure Precipitation (cm)